Temp
100 90 74 75 75 75 76 75 75 75 76 76 76 76 76 76 76 76 77 77 78 78 79 79 78 78 78 78 77 76 76 76 76 77 77 78 78 78 78 78 79 84 77
100 90 74 75 75 75 75 75 75 76 76 76 76 76 76 76 76 76 76 77 78 78 79 78 78 78 78 77 76 75 75 75 76 76 77 78 78 78 77 76 77 79 76
96 90 83 74 75 75 76 76 76 76 76 76 76 76 76 76 76 76 76 77 77 78 78 78 78 78 77 76 75 75 75 75 76 76 78 90 84 77 77 76 76 76 76
96 91 88 73 74 75 75 75 76 76 76 76 76 76 76 76 76 76 76 76 77 78 78 78 78 77 76 75 74 74 74 75 75 76 85 91 88 77 77 76 76 76 76
96 93 87 73 74 74 75 75 75 76 75 75 76 76 76 76 76 76 75 76 77 78 78 78 77 76 74 74 74 74 74 75 75 78 94 91 89 79 77 77 76 76 76
96 96 75 73 73 74 74 75 75 74 74 74 75 76 76 76 76 75 75 76 77 77 78 77 76 74 73 73 73 74 74 74 73 94 92 88 88 77 77 76 76 76 76
96 95 84 72 73 74 74 75 74 74 74 74 74 75 75 76 75 74 74 75 76 76 76 76 74 73 73 73 73 73 74 74 83 92 93 91 84 77 77 76 76 76 75
95 93 87 74 73 73 74 73 73 73 73 73 74 74 75 74 74 74 74 74 75 75 74 74 73 73 73 73 73 72 73 72 85 94 95 92 76 78 77 76 75 75 75
95 90 86 83 79 72 72 72 71 72 73 73 73 73 73 73 73 73 74 74 74 73 73 73 73 73 73 73 72 71 72 72 82 94 95 87 75 76 77 76 75 74 74
91 88 85 85 85 83 81 71 71 71 71 72 72 72 71 72 72 73 73 73 73 73 73 72 72 72 72 72 72 71 71 72 86 93 92 83 76 76 76 77 76 75 74
89 87 85 85 85 86 86 80 72 71 72 71 73 72 71 83 80 78 77 72 72 72 72 72 71 71 71 71 71 71 70 87 92 92 93 73 76 77 76 76 75 75 74
87 87 86 86 86 87 90 84 83 83 83 82 83 80 83 85 84 84 78 71 71 71 71 71 71 71 71 85 81 72 83 89 90 92 88 73 75 76 77 76 75 74 74
90 89 87 86 86 86 90 87 87 87 86 85 84 83 85 87 85 86 83 80 79 73 80 76 76 80 83 87 89 86 88 88 90 91 77 73 74 75 77 76 76 75 74
91 91 89 88 86 86 91 89 89 90 88 87 86 84 85 87 85 85 87 85 83 83 83 82 83 83 85 87 88 87 87 88 91 91 76 70 73 74 76 76 76 76 75
92 92 89 89 87 86 88 90 89 89 89 88 87 86 87 87 85 86 87 87 86 87 86 85 86 85 85 84 85 85 85 86 87 89 86 69 72 73 74 75 75 75 74
95 93 90 89 87 87 87 88 88 89 90 89 89 88 85 87 86 86 87 87 88 89 88 87 86 85 84 85 84 85 85 86 86 86 87 77 68 71 72 73 73 73 73
98 96 90 89 88 87 86 88 88 90 90 89 90 87 85 86 86 85 86 86 88 88 87 86 86 85 85 86 84 85 85 84 85 81 82 72 71 66 69 70 70 70 70
100 96 92 91 88 86 86 88 89 90 89 90 89 89 86 85 86 85 86 86 88 87 86 86 85 84 84 85 83 83 84 80 80 82 82 83 81 76 67 67 68 68 68
100 97 93 90 88 86 87 88 87 87 89 90 90 90 87 85 85 86 86 87 86 86 85 85 84 83 80 80 80 79 82 80 81 82 80 79 80 82 80 65 65 66 66
100 98 95 91 88 87 88 87 89 88 88 90 90 90 87 86 85 84 86 86 85 85 84 84 83 84 83 81 81 80 78 79 78 77 80 80 77 80 81 80 74 71 64
98 97 95 90 87 88 86 86 86 86 87 88 89 88 87 85 84 84 85 85 85 83 83 83 82 81 79 77 75 76 78 79 77 79 84 84 83 82 80 79 79 81 72
95 96 95 93 89 88 88 89 89 89 90 89 88 87 86 85 84 84 83 85 84 83 82 82 80 80 78 78 74 76 70 76 79 81 82 81 80 81 79 78 77 76 76
89 90 93 94 92 90 89 90 91 91 90 89 88 87 87 86 85 83 83 84 84 83 82 81 80 79 74 73 77 76 71 70 73 77 75 78 75 76 78 78 76 75 74
92 91 91 92 92 92 89 89 87 88 87 89 89 89 88 85 85 85 84 83 83 83 81 80 81 79 76 73 71 76 76 73 73 68 74 74 74 74 74 76 76 74 72
95 93 92 91 91 93 93 88 87 85 89 91 89 87 86 85 84 84 83 82 81 83 81 82 79 78 78 77 72 73 72 73 71 69 66 67 69 73 75 74 72 71 72
94 93 93 91 91 91 91 89 85 83 83 86 88 87 86 86 84 82 83 81 81 81 80 80 79 77 77 77 77 75 72 68 66 66 65 67 69 71 72 72 70 70 70
MSLP
1004.79 1007.32 1008.86 1009.53 1010.10 1010.50 1010.84 1011.29 1011.77 1012.30 1012.75 1012.96 1013.21 1013.47 1013.77 1014.18 1014.48 1014.78 1014.94 1015.03 1015.17 1015.29 1015.50 1015.58 1015.71 1015.85 1015.96 1015.99 1016.05 1016.20 1016.34 1016.54 1016.80 1016.95 1017.09 1017.21 1017.39 1017.52 1017.62 1017.64 1017.38 1017.64 1018.17
1004.94 1007.31 1008.88 1009.55 1010.09 1010.61 1010.97 1011.42 1011.87 1012.42 1012.88 1013.19 1013.46 1013.70 1014.03 1014.30 1014.79 1015.01 1015.24 1015.38 1015.55 1015.62 1015.79 1015.88 1015.97 1016.10 1016.33 1016.45 1016.53 1016.58 1016.73 1016.82 1016.92 1017.04 1017.18 1017.43 1017.68 1017.79 1017.91 1017.88 1017.71 1018.37 1018.58
1005.47 1007.28 1008.73 1009.61 1010.20 1010.68 1011.05 1011.52 1011.99 1012.46 1012.96 1013.37 1013.58 1013.92 1014.24 1014.52 1014.93 1015.30 1015.44 1015.65 1015.84 1015.99 1016.09 1016.22 1016.32 1016.52 1016.64 1016.80 1016.93 1017.02 1017.14 1017.10 1016.98 1016.99 1016.72 1016.41 1017.49 1018.05 1018.13 1018.24 1018.44 1018.60 1018.74
1005.82 1007.37 1008.46 1009.71 1010.22 1010.83 1011.18 1011.51 1012.12 1012.57 1012.98 1013.47 1013.80 1014.02 1014.38 1014.68 1015.11 1015.40 1015.68 1015.94 1016.08 1016.20 1016.38 1016.60 1016.72 1016.83 1017.04 1017.18 1017.29 1017.47 1017.47 1017.24 1017.07 1017.12 1016.62 1016.32 1017.26 1018.28 1018.36 1018.49 1018.62 1018.79 1018.97
1005.91 1007.10 1008.39 1009.75 1010.42 1010.82 1011.29 1011.59 1012.20 1012.68 1013.11 1013.53 1013.90 1014.17 1014.43 1014.81 1015.22 1015.64 1015.87 1016.12 1016.33 1016.44 1016.51 1016.73 1017.02 1017.29 1017.40 1017.51 1017.58 1017.72 1017.72 1017.41 1017.05 1016.90 1015.94 1016.43 1017.11 1018.29 1018.47 1018.64 1018.79 1019.05 1019.11
1005.78 1006.62 1008.74 1009.65 1010.36 1010.87 1011.34 1011.70 1012.19 1012.70 1013.18 1013.60 1013.96 1014.26 1014.64 1014.95 1015.31 1015.78 1016.10 1016.28 1016.42 1016.57 1016.76 1016.92 1017.20 1017.51 1017.70 1017.83 1017.93 1017.94 1017.88 1017.53 1017.42 1015.88 1016.48 1016.91 1017.17 1018.47 1018.71 1018.85 1018.90 1019.08 1019.21
1005.70 1006.57 1008.63 1009.68 1010.30 1010.91 1011.41 1011.91 1012.31 1012.77 1013.21 1013.66 1014.01 1014.36 1014.71 1015.10 1015.44 1015.88 1016.20 1016.45 1016.60 1016.70 1016.87 1017.14 1017.41 1017.59 1017.89 1018.05 1018.04 1018.05 1017.98 1017.73 1017.17 1016.08 1016.22 1016.77 1017.86 1018.56 1018.84 1019.03 1019.16 1019.31 1019.46
1005.77 1006.87 1008.52 1009.99 1010.52 1010.99 1011.48 1011.96 1012.47 1012.92 1013.31 1013.71 1014.09 1014.47 1014.85 1015.16 1015.55 1016.00 1016.34 1016.56 1016.76 1016.97 1017.16 1017.44 1017.64 1017.90 1018.07 1018.24 1018.36 1018.39 1018.29 1017.92 1016.80 1015.74 1015.65 1016.31 1018.13 1018.71 1018.93 1019.18 1019.36 1019.50 1019.65
1006.10 1007.39 1008.63 1009.69 1010.59 1011.24 1011.59 1012.04 1012.54 1013.04 1013.47 1013.82 1014.18 1014.59 1014.95 1015.34 1015.74 1016.11 1016.44 1016.67 1016.85 1017.09 1017.32 1017.58 1017.87 1018.13 1018.34 1018.47 1018.51 1018.52 1018.48 1018.19 1017.53 1015.82 1015.79 1016.81 1018.14 1018.68 1018.94 1019.16 1019.35 1019.50 1019.60
1006.46 1007.66 1008.76 1009.45 1010.30 1011.08 1011.80 1012.35 1012.71 1013.15 1013.61 1014.00 1014.39 1014.77 1015.13 1015.52 1015.88 1016.26 1016.56 1016.80 1017.02 1017.21 1017.45 1017.69 1017.87 1018.10 1018.37 1018.55 1018.68 1018.75 1018.69 1018.39 1017.44 1016.18 1016.45 1017.61 1018.22 1018.58 1018.78 1018.97 1019.20 1019.36 1019.53
1006.59 1007.60 1008.54 1009.19 1009.84 1010.53 1011.28 1012.35 1013.04 1013.49 1013.89 1014.29 1014.67 1015.07 1015.37 1015.22 1015.73 1016.18 1016.28 1016.67 1017.08 1017.34 1017.56 1017.80 1018.03 1018.22 1018.43 1018.59 1018.64 1018.65 1018.65 1017.62 1016.59 1016.65 1016.34 1017.83 1018.10 1018.47 1018.56 1018.72 1018.91 1019.20 1019.43
1006.15 1007.15 1008.18 1008.85 1009.45 1010.00 1010.47 1011.70 1012.48 1013.07 1013.61 1013.96 1014.30 1014.85 1014.79 1014.66 1015.14 1015.40 1015.97 1016.75 1017.20 1017.45 1017.70 1017.90 1018.08 1018.33 1018.43 1017.66 1018.11 1018.66 1018.09 1016.94 1016.97 1016.52 1016.92 1017.86 1018.30 1018.57 1018.57 1018.64 1018.81 1019.01 1019.22
1005.77 1006.64 1007.66 1008.43 1009.03 1009.53 1009.65 1010.94 1011.66 1012.15 1012.72 1013.33 1013.70 1014.21 1014.28 1014.27 1014.78 1015.03 1015.62 1016.52 1016.96 1017.51 1017.36 1017.80 1018.08 1017.84 1017.46 1016.67 1016.49 1017.15 1016.86 1016.97 1016.60 1016.51 1017.42 1017.99 1018.61 1018.70 1018.63 1018.60 1018.72 1018.91 1019.15
1005.02 1005.96 1007.09 1008.00 1008.68 1009.19 1009.11 1010.08 1010.71 1011.09 1011.84 1012.39 1012.94 1013.58 1013.74 1013.84 1014.23 1014.42 1014.55 1015.42 1016.03 1016.42 1016.38 1016.78 1016.83 1016.94 1016.58 1016.51 1016.32 1016.48 1016.69 1016.55 1016.12 1016.17 1017.36 1017.90 1018.46 1018.59 1018.56 1018.58 1018.63 1018.80 1018.99
1004.18 1005.15 1006.38 1007.39 1008.20 1008.83 1008.98 1009.41 1009.91 1010.29 1010.98 1011.51 1012.16 1012.85 1013.20 1013.35 1013.67 1013.96 1013.95 1014.54 1014.98 1015.22 1015.59 1015.81 1015.86 1016.27 1016.30 1016.55 1016.57 1016.61 1016.55 1016.69 1016.49 1016.39 1016.65 1017.80 1018.28 1018.59 1018.63 1018.65 1018.72 1018.86 1019.01
1003.06 1004.24 1005.66 1006.71 1007.69 1008.38 1008.72 1008.99 1009.50 1009.75 1010.04 1010.85 1011.25 1011.90 1012.80 1012.88 1013.05 1013.46 1013.63 1013.86 1014.10 1014.35 1014.82 1015.09 1015.30 1015.65 1016.06 1016.13 1016.39 1016.38 1016.35 1016.34 1016.42 1016.51 1016.45 1017.54 1018.02 1018.36 1018.61 1018.71 1018.85 1018.98 1019.13
1002.06 1003.26 1004.84 1005.99 1007.03 1007.79 1008.38 1008.71 1009.16 1009.22 1009.65 1010.21 1010.57 1011.26 1012.09 1012.51 1012.52 1013.00 1013.23 1013.45 1013.57 1013.99 1014.40 1014.78 1015.02 1015.42 1015.56 1015.64 1015.89 1015.89 1016.15 1016.23 1016.10 1016.49 1016.72 1017.56 1017.91 1018.18 1018.45 1018.73 1018.93 1019.11 1019.27
1001.29 1002.33 1004.00 1005.39 1006.26 1007.18 1007.74 1008.19 1008.60 1008.85 1009.33 1009.55 1010.16 1010.56 1011.37 1012.06 1012.20 1012.70 1012.74 1013.02 1013.22 1013.65 1014.10 1014.37 1014.73 1014.96 1015.10 1015.04 1015.14 1015.36 1015.59 1015.88 1016.28 1016.46 1016.68 1016.74 1016.95 1017.59 1018.22 1018.49 1018.82 1019.08 1019.28
1000.63 1001.59 1003.04 1004.53 1005.43 1006.44 1007.13 1007.62 1008.10 1008.42 1008.77 1009.02 1009.35 1009.82 1010.50 1011.25 1011.83 1011.98 1012.31 1012.39 1012.89 1013.25 1013.66 1014.05 1014.34 1014.52 1014.63 1014.97 1015.38 1015.72 1015.84 1016.08 1016.19 1016.25 1016.35 1016.58 1016.76 1016.93 1017.17 1018.47 1018.55 1018.91 1019.21
1000.00 1001.05 1002.21 1003.59 1004.75 1005.79 1006.54 1007.16 1007.49 1007.81 1008.19 1008.32 1008.60 1008.99 1009.55 1010.40 1010.97 1011.49 1011.70 1011.96 1012.39 1012.93 1013.22 1013.58 1013.78 1014.02 1014.21 1014.77 1015.16 1015.02 1015.65 1015.90 1015.96 1016.03 1016.10 1016.25 1016.53 1016.69 1017.09 1017.30 1018.13 1018.39 1018.85
999.37 1000.23 1001.33 1002.61 1003.90 1004.85 1005.51 1005.99 1006.38 1006.68 1007.28 1007.70 1007.89 1008.17 1008.80 1009.63 1010.41 1010.79 1011.27 1011.52 1011.91 1012.30 1012.63 1013.11 1013.55 1013.83 1014.16 1014.64 1015.24 1015.39 1015.32 1015.53 1015.67 1015.48 1015.09 1015.39 1015.66 1016.31 1016.94 1017.47 1017.59 1017.36 1018.30
998.89 999.47 1000.48 1001.59 1002.90 1003.98 1004.54 1004.92 1005.36 1005.57 1006.02 1006.67 1007.33 1007.64 1008.21 1008.88 1009.51 1010.01 1010.36 1010.63 1011.34 1011.79 1012.19 1012.45 1012.91 1013.12 1013.68 1014.35 1014.57 1014.59 1014.61 1014.61 1014.67 1015.03 1015.27 1015.51 1015.95 1016.33 1016.84 1017.35 1017.59 1017.83 1017.90
999.69 999.73 1000.14 1000.82 1001.77 1002.78 1003.51 1004.03 1004.33 1004.79 1005.14 1005.53 1005.96 1006.70 1007.21 1007.90 1008.49 1009.08 1009.59 1009.85 1010.16 1011.09 1011.40 1011.99 1012.43 1012.77 1013.30 1014.05 1014.20 1013.87 1013.90 1013.80 1014.09 1015.09 1015.68 1015.78 1016.31 1016.55 1016.52 1016.83 1017.20 1017.66 1017.88
998.78 999.94 1000.41 1000.72 1001.05 1001.61 1002.52 1002.83 1003.05 1003.19 1003.56 1003.96 1004.53 1005.46 1006.14 1006.90 1007.44 1008.01 1008.57 1009.14 1009.31 1009.88 1010.48 1010.93 1011.51 1012.16 1012.96 1013.34 1014.24 1014.10 1014.02 1014.26 1013.80 1014.91 1015.57 1015.93 1016.26 1016.37 1016.52 1016.65 1016.76 1017.51 1017.77
997.76 998.75 999.56 1000.22 1000.63 1000.71 1000.99 1001.94 1002.43 1002.75 1002.75 1003.09 1003.60 1004.24 1004.97 1005.69 1006.53 1007.11 1007.76 1008.26 1008.74 1009.00 1009.66 1010.08 1010.82 1011.42 1012.02 1012.34 1013.06 1013.66 1013.96 1014.22 1014.60 1014.72 1015.05 1015.68 1016.22 1015.98 1016.07 1016.49 1016.98 1017.51 1017.47
997.82 997.93 998.26 999.11 999.68 1000.11 1000.47 1000.86 1001.44 1001.86 1002.51 1002.73 1002.84 1003.28 1004.01 1004.69 1005.44 1006.21 1006.81 1007.53 1008.04 1008.36 1008.67 1009.36 1009.91 1010.55 1011.11 1011.62 1012.07 1012.59 1013.22 1013.64 1014.10 1014.55 1014.88 1015.01 1015.08 1015.33 1015.73 1016.41 1016.97 1017.12 1017.48
Wind_Speed
19 22 18 15 14 14 15 16 16 15 15 15 16 15 15 13 11 10 10 11 12 13 14 15 15 14 13 14 15 13 13 12 11 12 13 14 13 11 10 7 7 14 11
23 23 18 16 16 15 16 17 17 16 16 16 16 15 14 14 10 10 10 10 11 13 13 14 14 15 14 14 12 12 11 10 10 11 14 15 13 10 11 15 17 12 11
22 23 20 17 16 17 18 18 18 18 17 16 16 15 14 14 12 10 10 10 10 11 13 13 13 14 14 13 11 10 9 8 9 11 15 13 12 10 11 12 11 11 10
22 21 20 17 17 17 18 20 18 18 18 17 16 16 14 14 12 11 9 8 9 11 13 12 12 13 12 10 10 9 7 7 9 10 11 12 11 9 10 10 9 9 9
22 22 20 18 17 18 18 20 19 18 18 17 16 15 15 14 13 11 9 9 9 11 13 13 12 11 9 8 9 7 5 6 10 10 10 10 10 10 9 8 10 9 10
22 22 23 19 18 18 18 19 19 18 17 16 16 16 14 14 14 11 9 9 10 10 11 12 12 9 8 8 6 5 3 8 10 8 10 5 12 11 8 6 8 8 8
22 20 21 18 18 18 19 18 19 18 17 16 16 15 15 14 13 11 10 8 9 10 11 11 10 9 7 6 6 5 3 8 11 4 11 6 11 9 7 5 5 5 5
20 20 21 16 16 17 18 17 16 17 16 16 15 15 14 13 12 11 9 9 8 8 9 8 8 7 8 6 3 1 5 10 11 5 7 8 13 8 5 4 3 2 3
19 18 19 18 16 12 13 14 14 15 15 14 14 13 13 12 11 11 10 9 9 9 9 8 8 7 5 4 3 1 3 10 11 0 3 11 12 6 2 4 3 2 1
15 17 17 17 17 16 14 10 13 13 13 13 13 12 12 12 11 10 10 9 9 10 9 9 8 8 6 4 2 2 5 10 11 1 5 9 10 4 5 6 5 5 4
16 17 16 17 18 17 16 13 11 10 11 11 11 10 11 11 12 13 12 14 10 10 9 9 8 8 7 5 5 5 6 8 8 4 1 10 9 2 3 8 7 7 6
19 20 17 16 17 16 14 15 14 13 12 12 13 13 11 11 11 12 12 11 10 9 9 9 9 8 8 8 7 7 7 9 4 4 6 11 6 0 1 5 7 8 8
20 17 19 16 16 16 13 12 9 9 9 10 14 13 12 9 9 9 8 8 8 9 8 9 8 8 11 9 8 8 10 3 6 4 9 10 3 2 2 0 4 6 7
21 21 20 20 16 15 11 12 12 11 11 10 12 14 10 7 9 9 8 10 10 9 10 10 8 10 10 8 6 6 6 6 5 4 9 11 5 1 1 2 2 2 2
22 22 21 20 18 15 12 11 11 11 11 12 12 13 11 11 9 9 9 10 10 10 10 9 9 9 8 9 8 8 8 7 7 5 6 12 8 3 2 3 3 3 2
22 22 20 21 18 18 15 12 10 10 12 11 11 13 15 11 9 10 9 10 10 10 10 9 9 8 8 8 9 9 8 8 8 7 4 7 10 7 5 2 2 1 2
21 23 20 19 19 18 17 13 11 11 11 11 11 13 16 13 11 11 11 10 10 9 10 9 9 8 8 8 9 9 8 9 6 2 3 6 7 10 9 6 4 3 2
22 23 23 19 20 18 16 14 12 12 11 11 12 11 15 16 14 12 11 10 10 9 9 9 9 9 9 9 7 6 7 2 4 5 6 5 5 6 8 10 8 5 3
23 22 23 20 20 19 17 14 14 13 12 12 12 12 15 15 16 12 11 10 10 10 9 10 10 9 7 5 4 4 6 6 7 7 8 6 6 5 3 9 11 8 6
22 21 21 18 19 18 14 12 12 12 12 12 12 12 14 13 16 14 12 11 11 10 10 10 10 10 8 8 7 7 6 7 6 5 5 4 4 6 5 5 7 8 10
21 21 21 20 18 14 14 13 13 12 12 12 12 15 15 14 17 15 12 12 11 12 11 11 10 11 8 4 5 7 7 8 7 7 8 6 6 6 4 3 4 1 6
17 18 20 19 18 16 13 13 12 12 12 12 11 13 15 16 16 16 15 13 14 11 13 12 12 9 7 8 7 7 6 8 9 8 6 5 4 3 6 6 2 3 4
14 13 16 18 18 17 18 13 12 12 11 12 13 12 15 17 17 18 17 14 14 12 11 12 11 13 9 7 11 6 5 7 6 5 5 4 5 5 4 4 6 4 4
16 16 16 16 19 18 19 16 17 14 14 13 12 12 13 18 18 18 18 18 14 13 13 13 12 11 11 11 6 9 4 3 5 5 4 5 5 6 6 5 3 3 4
15 15 13 16 18 18 18 18 14 16 12 11 11 15 15 15 18 18 18 17 16 12 14 13 14 14 12 10 10 9 9 5 2 4 6 6 4 5 5 3 2 4 4
17 16 15 18 18 17 15 17 19 18 16 12 13 11 11 11 13 17 18 17 16 15 15 14 14 16 13 12 9 9 9 6 8 6 6 6 7 6 5 2 4 3 2
Wind_Direction
135 139 136 135 136 136 136 135 134 135 140 137 134 134 131 126 122 113 111 109 113 117 119 118 116 114 111 107 101 95 96 96 97 99 100 99 96 90 65 32 152 96 91
132 148 139 138 137 138 138 137 136 138 143 141 138 136 133 128 124 119 114 112 119 124 123 122 123 123 118 113 105 102 103 106 116 123 118 101 92 84 68 54 59 93 92
135 147 149 138 140 142 143 140 140 143 145 144 141 139 136 130 127 119 118 121 125 126 127 126 128 126 124 117 110 108 114 132 152 165 176 111 100 89 78 76 88 91 89
139 149 152 143 144 146 146 142 143 147 145 146 144 141 138 134 130 127 123 124 131 132 130 129 129 130 124 118 113 112 123 171 193 196 202 115 109 106 101 98 98 100 104
147 154 142 146 150 149 148 144 147 147 146 148 147 144 141 138 137 135 130 134 139 138 136 132 130 128 118 113 115 118 131 207 230 232 106 118 116 124 129 129 140 120 63
151 158 139 148 151 152 151 149 148 147 147 147 148 145 144 144 144 143 141 147 147 144 140 136 133 127 123 124 117 115 173 259 284 223 84 93 99 126 130 120 100 103 97
155 151 154 149 151 153 153 153 150 149 148 150 150 148 149 150 147 146 150 154 154 148 142 140 137 133 136 144 149 154 236 280 275 86 131 135 111 131 129 116 106 102 99
156 145 155 151 152 154 155 152 150 151 151 152 151 150 153 151 148 151 155 156 153 141 135 137 139 142 145 148 150 348 310 299 294 164 138 126 117 124 124 120 113 97 82
154 148 156 167 160 151 151 150 150 153 155 154 153 154 153 148 150 155 160 157 148 143 144 147 146 147 151 155 160 181 303 303 296 259 301 100 111 117 165 163 170 181 178
152 154 163 169 171 172 168 148 152 156 157 155 156 154 149 149 155 159 157 157 154 154 156 159 159 160 164 167 189 257 289 285 279 321 229 100 98 98 218 218 206 211 210
164 162 167 171 173 175 172 165 155 155 154 151 153 152 151 179 176 165 194 149 165 165 164 164 167 171 173 182 201 217 247 243 233 247 174 111 98 103 204 218 209 206 216
174 170 171 175 176 175 173 165 179 176 182 184 183 175 188 187 184 176 162 153 168 171 170 170 173 180 199 195 190 213 238 251 251 258 86 106 107 105 273 237 224 214 208
178 174 177 177 177 181 179 166 182 179 184 190 190 181 202 190 181 186 158 172 183 186 187 185 184 204 206 238 182 201 214 203 247 223 101 102 87 357 352 283 219 230 211
181 181 179 180 179 186 183 174 187 186 188 188 191 185 202 199 179 191 182 184 195 180 202 192 195 216 216 226 254 222 243 238 232 248 128 131 145 142 43 57 125 167 223
183 183 182 182 181 185 203 182 193 194 188 194 187 189 207 203 187 193 193 190 195 184 203 190 211 206 209 219 225 231 226 238 274 270 138 146 153 165 132 106 103 94 84
186 184 181 185 185 186 199 185 194 192 185 198 194 194 205 202 189 199 204 202 199 201 203 203 208 199 214 217 214 230 234 227 214 231 230 154 157 164 167 147 87 53 10
191 183 180 189 184 191 196 196 193 196 213 195 206 193 189 210 198 209 206 207 208 205 207 207 203 213 209 215 229 208 230 231 250 309 248 144 164 175 170 152 123 97 83
198 184 180 190 187 191 192 195 197 206 197 203 206 195 199 206 220 198 206 207 209 208 202 206 208 208 223 228 226 220 206 182 234 236 243 245 200 176 175 150 138 131 113
204 187 181 186 193 192 195 198 200 200 205 210 200 206 191 203 209 210 218 206 202 207 206 211 210 219 211 234 251 219 232 239 231 233 236 214 238 260 165 152 144 145 146
206 193 186 183 193 189 195 200 200 205 202 210 208 205 199 201 205 207 212 214 194 211 210 212 217 212 224 204 238 230 211 233 228 216 224 228 208 213 243 208 167 179 176
210 192 186 181 187 190 198 196 206 202 205 207 211 206 202 197 208 204 214 204 199 209 213 201 212 228 200 207 198 241 235 228 231 236 231 233 236 209 223 223 249 277 170
217 204 188 187 183 195 196 204 206 208 206 207 207 209 204 203 202 206 207 207 200 208 212 208 205 210 199 215 206 227 218 215 211 219 245 224 239 210 189 200 282 266 282
215 228 221 205 199 194 209 202 208 215 216 202 206 204 202 204 203 206 204 213 196 203 206 207 203 211 196 210 222 228 209 236 159 146 200 199 158 230 239 199 223 260 293
193 198 217 226 215 207 200 221 212 211 213 214 208 205 203 201 205 205 207 205 207 191 209 198 200 204 192 200 196 235 240 315 207 159 170 199 210 221 222 249 296 285 296
215 206 203 213 223 224 205 207 215 222 221 218 208 211 204 198 204 206 205 204 210 201 201 204 197 198 198 206 188 202 209 212 222 247 222 193 223 239 233 215 271 292 286
245 243 210 200 217 218 219 208 213 218 221 221 226 205 211 205 195 205 205 205 205 206 198 202 195 195 206 207 190 189 197 180 194 194 220 226 232 179 173 202 254 266 326